CW1767 Weather Reports


Display with metric or nautical units.
time (UTC)temp
F
wind
direction
speed
MPH
gust
MPH
rain 1hr
in
rain 24hr
in
rain mn
in
humidity
%
barometer
mb
20260506204526 70 148 0.0 2.0 0.00 0.05 0.05 75 1008.8
20260506203025 70 174 0.0 2.0 0.00 0.05 0.05 75 1008.7
20260506201523 70 155 0.0 3.0 0.00 0.05 0.05 75 1009.0
20260506200023 70 171 0.0 3.0 0.00 0.05 0.05 75 1009.1
20260506194522 70 167 0.0 7.0 0.00 0.05 0.05 76 1009.1
20260506193020 70 114 0.0 3.0 0.00 0.05 0.05 76 1008.9
20260506191520 70 121 0.0 3.0 0.00 0.05 0.05 76 1009.1
20260506190018 70 120 1.0 4.0 0.00 0.05 0.05 76 1009.6
20260506184516 69 182 0.0 2.0 0.00 0.05 0.05 79 1009.9
20260506183016 68 126 0.0 2.0 0.00 0.05 0.05 81 1009.9
20260506181514 67 154 0.0 2.0 0.01 0.05 0.05 83 1010.2
20260506180013 67 115 0.0 4.0 0.02 0.05 0.05 85 1010.1
20260506174513 66 143 0.0 3.0 0.03 0.05 0.05 87 1010.3
20260506173013 65 115 0.0 2.0 0.03 0.05 0.05 88 1010.2
20260506171511 65 111 0.0 3.0 0.03 0.04 0.04 87 1010.5
20260506170008 65 112 0.0 3.0 0.02 0.03 0.03 86 1010.7
20260506164506 65 115 0.0 3.0 0.02 0.02 0.02 85 1011.2
20260506163007 65 134 0.0 4.0 0.02 0.02 0.02 84 1011.5
20260506161504 66 125 0.0 2.0 0.01 0.01 0.01 83 1011.5
20260506160003 67 119 0.0 3.0 0.01 0.01 0.01 80 1011.8
20260506154501 69 119 0.0 3.0 0.00 0.00 0.00 75 1011.9
20260506153112 69 121 0.0 2.0 0.00 0.00 0.00 74 1011.8
20260506151601 69 102 0.0 3.0 0.00 0.00 0.00 73 1011.7
20260506144558 70 144 0.0 6.0 0.00 0.00 0.00 70 1011.8
20260506143107 70 184 1.0 8.0 0.00 0.00 0.00 70 1011.5
20260506141557 70 192 1.0 4.0 0.00 0.00 0.00 70 1011.7
20260506140058 70 205 1.0 4.0 0.00 0.00 0.00 70 1011.7
20260506134555 70 47 1.0 4.0 0.00 0.00 0.00 70 1011.7
20260506133055 69 155 0.0 5.0 0.00 0.00 0.00 70 1011.7
20260506131552 69 88 1.0 6.0 0.00 0.00 0.00 71 1011.8
20260506130050 68 122 0.0 5.0 0.00 0.00 0.00 72 1011.9
20260506124547 68 115 0.0 4.0 0.00 0.00 0.00 72 1011.9
20260506123046 67 74 0.0 5.0 0.00 0.00 0.00 72 1012.3
20260506121546 67 54 0.0 3.0 0.00 0.00 0.00 73 1012.0
20260506120055 66 84 0.0 3.0 0.00 0.00 0.00 74 1012.0
20260506114555 65 130 0.0 4.0 0.00 0.00 0.00 76 1011.9
20260506113044 65 65 0.0 3.0 0.00 0.00 0.00 76 1011.9
20260506111544 64 69 0.0 4.0 0.00 0.00 0.00 76 1011.8
20260506110049 64 89 0.0 4.0 0.00 0.00 0.00 76 1011.8
20260506104543 64 72 0.0 3.0 0.00 0.00 0.00 76 1011.9
20260506103042 64 115 0.0 2.0 0.00 0.00 0.00 76 1011.9
20260506101543 64 69 0.0 3.0 0.00 0.00 0.00 75 1011.9
20260506100045 64 102 0.0 4.0 0.00 0.00 0.00 75 1011.8
20260506094554 64 111 0.0 2.0 0.00 0.00 0.00 75 1011.7
20260506093038 64 119 0.0 2.0 0.00 0.00 0.00 74 1011.8
20260506091538 64 58 0.0 3.0 0.00 0.00 0.00 74 1011.8
20260506090139 64 111 0.0 2.0 0.00 0.00 0.00 73 1011.8
20260506084535 64 128 0.0 4.0 0.00 0.00 0.00 72 1011.7
20260506083034 64 137 0.0 3.0 0.00 0.00 0.00 72 1011.9
20260506081535 64 126 0.0 3.0 0.00 0.00 0.00 71 1011.9
20260506073033 65 125 0.0 4.0 0.00 0.00 0.00 72 1012.0
20260506071533 65 113 0.0 3.0 0.00 0.00 0.00 72 1012.1
20260506061532 66 19 0.0 4.0 0.00 0.00 0.00 72 1012.4
20260506044524 67 80 0.0 3.0 0.00 0.00 0.00 70 1012.8
20260506043014 68 34 0.0 6.0 0.00 0.00 0.00 70 1012.8
20260506041509 68 49 0.0 2.0 0.00 0.00 0.00 71 1012.8
20260506040010 68 38 1.0 3.0 0.00 0.00 0.00 71 1012.7
20260506034506 68 109 0.0 3.0 0.00 0.00 0.00 72 1012.6
20260506033006 68 47 0.0 3.0 0.00 0.00 0.00 72 1012.7
20260506031512 68 29 0.0 4.0 0.00 0.00 0.00 72 1012.7
20260506030004 68 63 0.0 3.0 0.00 0.00 0.00 71 1012.7
20260506024513 69 69 0.0 3.0 0.00 0.00 0.00 71 1012.7
20260506023102 69 92 0.0 4.0 0.00 0.00 0.00 71 1012.7
20260506021503 69 130 0.0 3.0 0.00 0.00 0.00 71 1012.8
20260506020002 68 85 0.0 2.0 0.00 0.00 0.00 71 1012.9
20260506014501 69 71 0.0 2.0 0.00 0.00 0.00 71 1012.7
20260506013001 69 31 0.0 3.0 0.00 0.00 0.00 70 1012.6
20260506011500 69 57 0.0 3.0 0.00 0.00 0.00 70 1012.5
20260506010000 69 275 0.0 3.0 0.00 0.00 0.00 69 1012.2
20260506004601 70 92 0.0 2.0 0.00 0.00 0.00 68 1012.0
20260506003100 70 99 0.0 4.0 0.00 0.00 0.00 66 1011.7
20260506001559 71 98 0.0 3.0 0.00 0.00 0.00 65 1011.6
20260505234605 72 46 0.0 3.0 0.00 0.00 0.00 60 1011.4
20260505233110 73 82 0.0 4.0 0.00 0.00 0.00 59 1011.4
20260505231605 73 81 1.0 3.0 0.00 0.00 0.00 57 1011.4
20260505230056 74 84 0.0 3.0 0.00 0.00 0.00 55 1011.3
20260505224556 75 48 0.0 4.0 0.00 0.00 0.00 54 1011.2
20260505223057 76 20 0.0 3.0 0.00 0.00 0.00 52 1011.2
20260505221555 77 50 0.0 3.0 0.00 0.00 0.00 51 1011.1
20260505220056 77 15 1.0 3.0 0.00 0.00 0.00 48 1011.2
20260505214558 78 44 1.0 6.0 0.00 0.00 0.00 46 1011.2
20260505213053 79 48 1.0 5.0 0.00 0.00 0.00 44 1010.9
20260505211606 79 24 0.0 10.0 0.00 0.00 0.00 43 1011.0
20260505210051 80 41 1.0 4.0 0.00 0.00 0.00 40 1010.9